SCP
0 0 0 0 0 0 0 0 0 0 0 0 0 0 0 0 0 0 0 0 0 0 0 0 0 0 0 0 0 0 0 0 0 0 0 0 0 0 0 0 0 0 0 0
0 0 0 0 0 0 0 0 0 0 0 0 0 0 0 0 0 0 0 0 0 0 0 0 0 0 0 0 0 0 0 0 0 0 0 0 0 0 0 0 0 0 0 0
0 0 0 0 0 0 0 0 0 0 0 0 0 0 0 0 0 0 0 0 0 0 0 0 0 0 0 0 0 0 0 0 0 0 0 0 0 0 0 0 0 0 0 0
0 0 0 0 0 0 0 0 0 0 0 0 0 0 0 0 0 0 0 0 0 0 0 0 0 0 0 0 0 0 0 0 0 0 0 0 0 0 0 0 0 0 0 0
0 0 0 0 0 0 0 0 0 0 0 0 0 0 0 0 0 0 0 0 0 0 0 0 0 0 0 0 0 0 0 0 0 0 0 0 0 0 0 0 0 0 0 0
0 0 0 0 0 0 0 0 0 0 0 0 0 0 0 0 0 0 0 0 0 0 0 0 0 0 0 0 0 0 0 0 0 0 0 0 0 0 0 0 0 0 0 0
0 0 0 0 0 0 0 0 0 0 0 0 0 0 0 0 0 0 0 0 0 0 0 0 0 0 0 0 0 0 0 0 0 0 0 0 0 0 0 0 0 0 0 0
0 0 0 0 0 0 0 0 0 0 0 0 0 0 0 0 0 0 0 0 0 0 0 0 0 0 0 0 0 0 0 0 0 0 0 0 0 0 0 0 0 0 0 0
0 0 0 0 0 0 0 0 0 0 0 0 0 0 0 0 0 0 0 0 0 0 0 0 0 0 0 0 0 0 0 0 0 0 0 0 0 0 0 0 0 0 0 0
0 0 0 0 0 0 0 0 0 0 0 0 0 0 0 0 0 0 0 0 0 0 0 0 0 0 0 0 0 0 0 0 0 0 0 0 0 0 0 0 0 0 0 0
0 0 0 0 0 0 0 0 0 0 0 0 0 0 0 0 0 0 0 0 0 0 0 0 0 0 0 0 0 0 -0 0 0 0 0 0 0 0 0 0 0 0 0 0
0 0 0 0 0 0 0 0 0 0 0 0 0 0 0 0 0 0 0 0 0 0 0 0 0 0 0 -0 0 0 -0 -0 -0 -0 -0 -0 -0 -0 -0 0 0 0 0 0
0 0 0 0 0 0 0 0 0 0 0 0 0 0 0 0 0 0 0 0 0 0 0 0 0 0 0 0 0 -0 -0 0 0 0 -0 -0 -0 -0 -0 -0 0 0 0 0
0 0 0 0 0 0 0 0 0 0 0 0 0 0 0 0 0 0 0 0 0 0 0 0 0 0 0 -0 -0 -0 -0 -0 -0 -0 0 0 0 0 0 0 0 0 0 0
0 0 0 0 0 0 0 0 0 0 0 0 0 0 0 0 0 0 0 0 0 0 0 0 0 0 0 0 0 0 0 0 0 0 0 0 0 0 0 0 0 0 0 0
0 0 0 0 0 0 0 0 0 0 0 0 0 0 0 0 0 0 0 0 0 0 0 0 0 0 0 0 0 0 0 0 0 0 0 0 0 0 0 0 0 0 0 0
0 0 0 0 0 0 0 0 0 0 0 0 0 0 0 0 0 0 0 0 0 0 0 0 0 0 0 0 0 0 0 0 0 0 0 0 0 0 0 0 0 0 0 0
0 0 0 0 0 0 0 0 0 0 0 0 0 0 0 0 0 0 0 0 0 0 0 0 0 0 0 0 0 0 0 0 0 0 0 0 0 0 0 0 0 0 0 0
0 0 0 0 0 0 0 0 0 0 0 0 0 0 0 0 0 0 0 0 0 0 0 0 0 0 0 0 0 0 0 0 0 0 0 0 0 0 0 0 0 0 0 0
0 0 0 0 0 0 0 0 0 0 0 0 0 0 0 0 0 0 0 0 0 0 0 0 0 0 0 0 0 0 0 0 0 0 0 0 0 0 0 0 0 0 0 0
0 0 0 0 0 0 0 0 0 0 0 0 0 0 0 0 0 0 0 0 0 0 0 0 0 0 0 0 0 0 0 0 0 0 0 0 0 0 0 0 0 0 0 0
0 0 0 0 0 0 0 0 0 0 0 0 0 0 0 0 0 0 0 0 0 0 0 0 0 0 0 0 0 0 0 0 0 0 0 0 0 0 0 0 0 0 0 0
0 0 0 0 0 0 0 0 0 0 0 0 0 0 0 0 0 0 0 0 0 0 0 0 0 0 0 0 0 0 0 0 0 0 0 0 0 0 0 0 0 0 -0 -0
0 0 0 0 0 0 0 0 0 0 0 0 0 0 0 0 0 0 0 0 0 0 0 0 0 0 0 0 0 0 0 0 0 0 0 0 0 0 0 0 0 0 0 -0
0 0 0 0 0 0 0 0 0 0 0 0 0 0 0 0 0 0 0 0 0 0 0 0 0 0 0 0 0 0 0 0 0 0 0 0 0 0 0 0 0 0 0 0
0 0 0 0 0 0 0 0 0 0 0 0 0 0 0 0 0 0 0 0 0 0 0 0 0 0 0 0 0 0 0 0 0 0 0 0 0 0 0 0 0 0 0 0
Wind_Speed_500mb
3 8 13 9 10 6 6 12 20 16 9 10 18 20 14 6 4 7 11 16 19 21 24 23 23 24 18 18 18 17 17 20 16 20 20 21 17 13 11 21 38 39 33 30
5 13 2 2 6 11 13 17 22 19 12 7 16 27 18 11 3 4 6 11 15 19 25 28 23 21 22 18 12 9 10 14 17 16 16 15 16 11 10 10 25 33 33 28
12 6 10 8 9 14 18 23 15 16 10 17 17 28 19 12 11 6 5 8 14 19 25 31 36 33 27 24 21 13 1 7 7 6 10 13 16 18 12 10 14 17 17 14
11 4 9 13 17 19 17 18 19 15 9 11 4 12 12 20 18 12 6 7 12 17 23 31 39 44 41 36 28 20 15 6 4 6 10 12 16 16 15 11 8 11 16 18
3 9 11 13 11 22 4 6 7 7 14 14 16 11 6 12 23 19 16 8 9 15 22 32 39 45 48 47 40 33 24 14 6 2 4 11 11 9 12 12 10 10 9 12
15 2 7 6 4 20 15 9 6 4 3 13 19 22 22 12 15 23 18 13 8 10 18 28 36 41 46 48 49 47 39 31 19 10 5 3 6 7 7 9 10 12 11 9
5 11 5 9 9 6 16 13 5 8 8 13 3 13 31 2 6 26 31 20 13 9 14 23 31 37 42 45 48 49 47 47 39 27 15 8 5 5 9 12 13 14 15 14
6 8 13 11 18 9 29 17 9 12 8 5 6 15 3 6 9 27 25 19 13 10 13 20 26 32 36 40 43 45 46 45 42 39 35 26 16 10 8 10 14 18 17 16
7 8 2 1 3 5 8 18 16 8 2 8 15 16 8 11 17 21 20 17 13 9 11 15 21 26 30 33 37 39 40 40 40 40 38 35 30 22 14 11 14 19 23 27
0 10 2 3 2 5 9 7 5 6 11 19 11 12 17 16 20 19 20 21 15 11 9 14 21 27 28 30 30 30 31 33 35 36 37 38 37 32 27 19 15 18 24 30
3 4 2 1 12 11 8 11 11 6 8 15 24 13 2 2 26 31 34 29 22 12 7 9 21 29 25 23 24 25 25 24 24 25 28 30 32 34 32 28 22 17 21 28
5 3 10 12 3 5 7 9 18 17 19 9 10 27 3 8 18 36 39 29 21 15 4 17 32 35 25 23 23 24 25 25 24 24 24 27 29 30 30 30 29 26 21 23
11 6 8 7 5 4 12 11 6 2 1 30 22 26 5 2 9 29 41 29 20 15 16 24 25 26 18 22 25 25 24 23 23 25 25 24 25 26 28 28 29 29 29 26
11 9 13 25 22 1 10 12 15 9 11 24 29 34 6 12 15 24 31 29 27 20 25 21 27 27 26 30 30 31 27 23 21 23 25 28 28 29 29 29 30 32 31 30
7 12 9 12 20 16 24 26 25 21 19 20 35 24 12 19 18 31 36 28 21 25 23 31 36 37 35 32 33 32 32 29 25 24 26 28 29 29 29 30 31 32 33 32
4 7 5 10 16 15 24 35 32 38 37 29 43 51 29 37 40 33 38 37 33 28 31 36 37 36 36 36 35 37 35 37 36 31 27 28 30 31 30 30 31 33 33 32
9 9 7 16 8 14 21 28 43 33 31 32 31 40 19 21 26 33 38 29 26 33 35 35 37 37 35 36 37 37 40 41 46 41 32 30 31 31 30 29 29 31 33 34
11 9 6 10 5 23 9 6 10 29 36 30 24 18 22 29 36 24 23 26 35 31 32 35 41 41 40 39 42 45 45 47 51 52 41 33 33 31 30 28 28 29 32 34
10 12 6 9 12 28 39 21 18 20 23 25 34 33 38 31 20 19 18 18 29 37 40 40 37 40 41 40 40 44 48 52 55 61 47 34 34 36 36 35 34 34 34 35
8 10 13 9 12 17 14 7 10 5 22 27 35 37 25 13 16 8 14 38 39 35 37 39 41 45 44 39 39 42 38 38 48 55 47 37 39 41 41 42 42 40 40 38
7 11 29 28 22 19 14 12 9 15 20 11 22 23 17 13 20 31 40 45 43 44 40 44 45 44 45 46 44 43 43 49 45 50 49 46 48 43 43 47 48 49 46 43
16 15 11 13 17 27 13 11 17 25 16 18 19 21 16 30 38 43 45 41 41 44 42 46 50 50 48 45 46 46 46 42 43 49 59 57 53 50 47 51 53 53 53 49
9 11 10 16 13 6 8 31 14 32 23 21 19 22 23 33 34 30 27 28 30 37 45 50 54 60 57 58 54 52 47 48 48 54 66 63 60 58 56 55 55 56 56 55
8 11 10 9 24 32 28 17 22 25 22 19 22 24 23 27 30 37 36 34 36 39 47 56 61 66 68 64 63 62 57 53 53 54 56 65 69 66 62 61 58 59 59 58
9 5 9 24 34 34 22 28 33 34 31 35 34 33 32 34 35 38 43 45 45 47 52 57 60 64 67 63 63 64 65 61 60 61 59 59 65 71 69 69 68 66 64 60
2 5 8 16 7 11 26 34 33 34 39 41 41 41 33 34 42 46 50 50 56 62 63 63 62 65 69 67 65 63 61 61 63 69 68 63 62 67 73 75 75 74 71 65
Wind_Direction_500mb
56 232 222 191 216 235 230 251 263 268 283 287 273 272 267 263 322 352 18 14 5 8 360 359 345 338 339 313 299 278 240 218 241 240 232 234 242 240 246 234 227 216 225 247
186 242 209 208 176 210 228 256 265 275 263 261 280 276 267 227 201 7 19 39 20 17 22 22 19 10 8 8 342 290 240 219 230 248 250 239 242 232 222 226 229 229 233 236
235 108 111 179 198 210 229 241 255 270 307 253 286 273 218 191 168 143 68 62 51 39 29 32 37 36 34 35 35 37 118 246 235 225 247 245 239 235 231 224 230 236 229 246
257 137 226 219 240 217 253 229 244 264 267 273 302 291 220 198 187 187 151 90 62 50 52 50 49 48 46 48 53 52 55 74 215 225 227 226 224 229 229 225 229 229 236 254
100 184 196 217 230 191 243 136 208 246 246 295 223 251 230 180 209 196 168 128 70 56 59 60 58 56 53 52 52 52 55 51 48 13 266 242 239 220 200 205 207 210 229 252
261 311 248 248 182 201 139 118 81 74 257 255 247 225 268 205 233 176 162 146 109 69 64 64 62 60 56 54 54 54 53 54 54 40 3 296 225 226 225 197 186 206 224 242
241 213 216 203 196 157 187 178 234 231 198 246 61 229 256 233 202 184 162 149 126 90 66 62 60 56 52 48 46 47 47 49 49 48 45 20 338 276 221 202 198 212 235 250
264 252 189 170 227 224 203 210 226 252 241 321 138 237 232 4 141 147 143 137 127 108 78 62 52 47 44 42 39 37 35 36 37 41 42 38 27 355 306 262 225 218 215 223
206 255 122 265 331 251 170 218 264 272 136 273 250 251 188 132 135 144 146 154 149 127 89 58 39 34 31 28 26 24 23 22 19 22 24 26 28 26 9 314 266 255 242 230
54 282 51 73 239 211 249 141 177 212 248 246 235 265 263 192 180 177 178 180 171 147 94 55 31 13 6 4 6 9 9 10 10 10 9 8 8 11 9 1 325 279 258 251
188 249 151 210 205 231 191 218 228 275 247 263 270 263 93 261 200 196 195 191 182 166 118 41 8 348 337 337 343 348 352 355 357 358 358 356 353 353 353 352 345 319 284 263
184 212 254 249 113 328 294 275 245 238 233 238 280 263 169 270 247 209 204 199 190 185 223 323 327 331 317 310 313 322 330 336 343 349 350 347 346 343 340 338 335 329 314 283
183 205 283 248 171 181 233 212 198 160 308 248 254 258 67 59 177 204 207 199 195 212 287 306 317 321 292 290 286 291 301 309 320 329 335 336 334 334 333 332 329 324 319 308
171 198 228 257 288 117 228 205 218 208 246 262 242 270 221 211 208 205 205 209 216 249 292 305 317 319 288 290 278 266 273 284 301 312 318 322 325 328 330 332 329 324 318 313
201 237 203 263 261 253 264 254 230 214 226 234 264 251 240 219 217 216 217 221 240 279 290 307 308 303 295 291 279 267 263 266 279 293 305 312 317 321 324 325 326 326 320 315
183 247 175 271 255 260 268 254 247 242 243 248 259 265 261 261 254 248 246 258 270 278 294 302 305 302 291 281 271 261 264 258 262 271 287 299 305 312 316 320 321 322 324 322
179 185 176 265 11 317 270 252 234 232 233 229 243 253 260 245 246 239 251 247 269 280 294 297 295 297 298 286 272 261 259 256 252 259 269 288 297 304 311 319 321 320 320 323
170 175 191 279 328 265 292 37 275 246 247 228 254 248 231 240 258 264 269 269 282 294 301 298 296 293 286 293 283 266 256 247 250 252 254 271 287 299 303 313 324 330 328 325
202 182 220 247 228 291 297 256 219 211 265 236 243 257 262 263 268 262 269 292 309 305 301 298 298 299 290 290 285 273 265 256 253 245 245 256 274 290 296 299 305 313 320 327
228 252 220 172 237 263 295 307 295 215 265 229 252 267 278 247 270 293 265 308 299 294 297 300 295 293 293 293 277 266 268 264 259 248 244 250 263 281 285 291 298 304 310 315
165 208 222 231 241 260 262 215 175 244 283 210 224 236 204 217 266 287 292 294 291 284 288 293 296 299 296 291 284 270 266 264 271 252 245 247 255 272 279 284 289 296 300 304
193 179 212 236 252 263 201 137 220 255 294 282 232 212 264 284 282 282 281 278 276 269 275 285 289 290 288 290 288 280 272 266 260 249 243 248 252 260 270 278 282 287 292 295
263 214 261 220 239 292 268 252 303 318 315 308 303 299 294 285 287 292 293 293 288 286 282 284 286 286 284 285 286 284 279 271 261 254 249 249 251 255 259 265 271 279 285 290
237 221 244 277 259 265 306 323 343 347 333 329 314 305 303 297 300 300 300 299 292 288 288 288 289 287 284 283 282 281 281 276 269 262 256 251 246 248 252 256 260 267 276 285
302 162 263 274 288 318 281 360 341 337 327 319 314 313 311 306 300 298 295 294 293 289 288 291 292 290 288 288 283 279 278 276 272 269 263 258 251 244 244 248 253 259 267 277
345 319 276 291 339 295 296 321 316 325 329 321 315 311 309 308 302 300 295 294 294 295 295 294 292 290 289 288 285 282 279 276 270 265 265 263 258 250 245 247 252 255 261 270
Wind_Speed_850mb
3 8 13 9 10 6 6 12 20 16 9 10 18 20 14 6 4 7 11 16 19 21 24 23 23 24 18 18 18 17 17 20 16 20 20 21 17 13 11 21 38 39 33 30
5 13 2 2 6 11 13 17 22 19 12 7 16 27 18 11 3 4 6 11 15 19 25 28 23 21 22 18 12 9 10 14 17 16 16 15 16 11 10 10 25 33 33 28
12 6 10 8 9 14 18 23 15 16 10 17 17 28 19 12 11 6 5 8 14 19 25 31 36 33 27 24 21 13 1 7 7 6 10 13 16 18 12 10 14 17 17 14
11 4 9 13 17 19 17 18 19 15 9 11 4 12 12 20 18 12 6 7 12 17 23 31 39 44 41 36 28 20 15 6 4 6 10 12 16 16 15 11 8 11 16 18
3 9 11 13 11 22 4 6 7 7 14 14 16 11 6 12 23 19 16 8 9 15 22 32 39 45 48 47 40 33 24 14 6 2 4 11 11 9 12 12 10 10 9 12
15 2 7 6 4 20 15 9 6 4 3 13 19 22 22 12 15 23 18 13 8 10 18 28 36 41 46 48 49 47 39 31 19 10 5 3 6 7 7 9 10 12 11 9
5 11 5 9 9 6 16 13 5 8 8 13 3 13 31 2 6 26 31 20 13 9 14 23 31 37 42 45 48 49 47 47 39 27 15 8 5 5 9 12 13 14 15 14
6 8 13 11 18 9 29 17 9 12 8 5 6 15 3 6 9 27 25 19 13 10 13 20 26 32 36 40 43 45 46 45 42 39 35 26 16 10 8 10 14 18 17 16
7 8 2 1 3 5 8 18 16 8 2 8 15 16 8 11 17 21 20 17 13 9 11 15 21 26 30 33 37 39 40 40 40 40 38 35 30 22 14 11 14 19 23 27
0 10 2 3 2 5 9 7 5 6 11 19 11 12 17 16 20 19 20 21 15 11 9 14 21 27 28 30 30 30 31 33 35 36 37 38 37 32 27 19 15 18 24 30
3 4 2 1 12 11 8 11 11 6 8 15 24 13 2 2 26 31 34 29 22 12 7 9 21 29 25 23 24 25 25 24 24 25 28 30 32 34 32 28 22 17 21 28
5 3 10 12 3 5 7 9 18 17 19 9 10 27 3 8 18 36 39 29 21 15 4 17 32 35 25 23 23 24 25 25 24 24 24 27 29 30 30 30 29 26 21 23
11 6 8 7 5 4 12 11 6 2 1 30 22 26 5 2 9 29 41 29 20 15 16 24 25 26 18 22 25 25 24 23 23 25 25 24 25 26 28 28 29 29 29 26
11 9 13 25 22 1 10 12 15 9 11 24 29 34 6 12 15 24 31 29 27 20 25 21 27 27 26 30 30 31 27 23 21 23 25 28 28 29 29 29 30 32 31 30
7 12 9 12 20 16 24 26 25 21 19 20 35 24 12 19 18 31 36 28 21 25 23 31 36 37 35 32 33 32 32 29 25 24 26 28 29 29 29 30 31 32 33 32
4 7 5 10 16 15 24 35 32 38 37 29 43 51 29 37 40 33 38 37 33 28 31 36 37 36 36 36 35 37 35 37 36 31 27 28 30 31 30 30 31 33 33 32
9 9 7 16 8 14 21 28 43 33 31 32 31 40 19 21 26 33 38 29 26 33 35 35 37 37 35 36 37 37 40 41 46 41 32 30 31 31 30 29 29 31 33 34
11 9 6 10 5 23 9 6 10 29 36 30 24 18 22 29 36 24 23 26 35 31 32 35 41 41 40 39 42 45 45 47 51 52 41 33 33 31 30 28 28 29 32 34
10 12 6 9 12 28 39 21 18 20 23 25 34 33 38 31 20 19 18 18 29 37 40 40 37 40 41 40 40 44 48 52 55 61 47 34 34 36 36 35 34 34 34 35
8 10 13 9 12 17 14 7 10 5 22 27 35 37 25 13 16 8 14 38 39 35 37 39 41 45 44 39 39 42 38 38 48 55 47 37 39 41 41 42 42 40 40 38
7 11 29 28 22 19 14 12 9 15 20 11 22 23 17 13 20 31 40 45 43 44 40 44 45 44 45 46 44 43 43 49 45 50 49 46 48 43 43 47 48 49 46 43
16 15 11 13 17 27 13 11 17 25 16 18 19 21 16 30 38 43 45 41 41 44 42 46 50 50 48 45 46 46 46 42 43 49 59 57 53 50 47 51 53 53 53 49
9 11 10 16 13 6 8 31 14 32 23 21 19 22 23 33 34 30 27 28 30 37 45 50 54 60 57 58 54 52 47 48 48 54 66 63 60 58 56 55 55 56 56 55
8 11 10 9 24 32 28 17 22 25 22 19 22 24 23 27 30 37 36 34 36 39 47 56 61 66 68 64 63 62 57 53 53 54 56 65 69 66 62 61 58 59 59 58
9 5 9 24 34 34 22 28 33 34 31 35 34 33 32 34 35 38 43 45 45 47 52 57 60 64 67 63 63 64 65 61 60 61 59 59 65 71 69 69 68 66 64 60
2 5 8 16 7 11 26 34 33 34 39 41 41 41 33 34 42 46 50 50 56 62 63 63 62 65 69 67 65 63 61 61 63 69 68 63 62 67 73 75 75 74 71 65
Wind_Direction_850mb
56 232 222 191 216 235 230 251 263 268 283 287 273 272 267 263 322 352 18 14 5 8 360 359 345 338 339 313 299 278 240 218 241 240 232 234 242 240 246 234 227 216 225 247
186 242 209 208 176 210 228 256 265 275 263 261 280 276 267 227 201 7 19 39 20 17 22 22 19 10 8 8 342 290 240 219 230 248 250 239 242 232 222 226 229 229 233 236
235 108 111 179 198 210 229 241 255 270 307 253 286 273 218 191 168 143 68 62 51 39 29 32 37 36 34 35 35 37 118 246 235 225 247 245 239 235 231 224 230 236 229 246
257 137 226 219 240 217 253 229 244 264 267 273 302 291 220 198 187 187 151 90 62 50 52 50 49 48 46 48 53 52 55 74 215 225 227 226 224 229 229 225 229 229 236 254
100 184 196 217 230 191 243 136 208 246 246 295 223 251 230 180 209 196 168 128 70 56 59 60 58 56 53 52 52 52 55 51 48 13 266 242 239 220 200 205 207 210 229 252
261 311 248 248 182 201 139 118 81 74 257 255 247 225 268 205 233 176 162 146 109 69 64 64 62 60 56 54 54 54 53 54 54 40 3 296 225 226 225 197 186 206 224 242
241 213 216 203 196 157 187 178 234 231 198 246 61 229 256 233 202 184 162 149 126 90 66 62 60 56 52 48 46 47 47 49 49 48 45 20 338 276 221 202 198 212 235 250
264 252 189 170 227 224 203 210 226 252 241 321 138 237 232 4 141 147 143 137 127 108 78 62 52 47 44 42 39 37 35 36 37 41 42 38 27 355 306 262 225 218 215 223
206 255 122 265 331 251 170 218 264 272 136 273 250 251 188 132 135 144 146 154 149 127 89 58 39 34 31 28 26 24 23 22 19 22 24 26 28 26 9 314 266 255 242 230
54 282 51 73 239 211 249 141 177 212 248 246 235 265 263 192 180 177 178 180 171 147 94 55 31 13 6 4 6 9 9 10 10 10 9 8 8 11 9 1 325 279 258 251
188 249 151 210 205 231 191 218 228 275 247 263 270 263 93 261 200 196 195 191 182 166 118 41 8 348 337 337 343 348 352 355 357 358 358 356 353 353 353 352 345 319 284 263
184 212 254 249 113 328 294 275 245 238 233 238 280 263 169 270 247 209 204 199 190 185 223 323 327 331 317 310 313 322 330 336 343 349 350 347 346 343 340 338 335 329 314 283
183 205 283 248 171 181 233 212 198 160 308 248 254 258 67 59 177 204 207 199 195 212 287 306 317 321 292 290 286 291 301 309 320 329 335 336 334 334 333 332 329 324 319 308
171 198 228 257 288 117 228 205 218 208 246 262 242 270 221 211 208 205 205 209 216 249 292 305 317 319 288 290 278 266 273 284 301 312 318 322 325 328 330 332 329 324 318 313
201 237 203 263 261 253 264 254 230 214 226 234 264 251 240 219 217 216 217 221 240 279 290 307 308 303 295 291 279 267 263 266 279 293 305 312 317 321 324 325 326 326 320 315
183 247 175 271 255 260 268 254 247 242 243 248 259 265 261 261 254 248 246 258 270 278 294 302 305 302 291 281 271 261 264 258 262 271 287 299 305 312 316 320 321 322 324 322
179 185 176 265 11 317 270 252 234 232 233 229 243 253 260 245 246 239 251 247 269 280 294 297 295 297 298 286 272 261 259 256 252 259 269 288 297 304 311 319 321 320 320 323
170 175 191 279 328 265 292 37 275 246 247 228 254 248 231 240 258 264 269 269 282 294 301 298 296 293 286 293 283 266 256 247 250 252 254 271 287 299 303 313 324 330 328 325
202 182 220 247 228 291 297 256 219 211 265 236 243 257 262 263 268 262 269 292 309 305 301 298 298 299 290 290 285 273 265 256 253 245 245 256 274 290 296 299 305 313 320 327
228 252 220 172 237 263 295 307 295 215 265 229 252 267 278 247 270 293 265 308 299 294 297 300 295 293 293 293 277 266 268 264 259 248 244 250 263 281 285 291 298 304 310 315
165 208 222 231 241 260 262 215 175 244 283 210 224 236 204 217 266 287 292 294 291 284 288 293 296 299 296 291 284 270 266 264 271 252 245 247 255 272 279 284 289 296 300 304
193 179 212 236 252 263 201 137 220 255 294 282 232 212 264 284 282 282 281 278 276 269 275 285 289 290 288 290 288 280 272 266 260 249 243 248 252 260 270 278 282 287 292 295
263 214 261 220 239 292 268 252 303 318 315 308 303 299 294 285 287 292 293 293 288 286 282 284 286 286 284 285 286 284 279 271 261 254 249 249 251 255 259 265 271 279 285 290
237 221 244 277 259 265 306 323 343 347 333 329 314 305 303 297 300 300 300 299 292 288 288 288 289 287 284 283 282 281 281 276 269 262 256 251 246 248 252 256 260 267 276 285
302 162 263 274 288 318 281 360 341 337 327 319 314 313 311 306 300 298 295 294 293 289 288 291 292 290 288 288 283 279 278 276 272 269 263 258 251 244 244 248 253 259 267 277
345 319 276 291 339 295 296 321 316 325 329 321 315 311 309 308 302 300 295 294 294 295 295 294 292 290 289 288 285 282 279 276 270 265 265 263 258 250 245 247 252 255 261 270